Regional Weather Roundup
Issued by NWS

Home | Current Version | Previous Version | Graphics & Text | Print | Product List | Glossary On
Versions: 1 2 3 4 5 6 7 8 9 10 11 12 13 14 15 16 17 18 19 20 21 22 23 24 25 26 27 28 29 30 31 32 33 34 35 36 37 38 39 40 41 42 43 44 45 46 47 48 49 50
000
ASUS43 KOAX 010010
RWRNE

WEATHER ROUNDUP FOR NEBRASKA
NATIONAL WEATHER SERVICE OMAHA NE
700 PM CDT THU JUL 31 2014

NOTES: SATELLITE DATA IS BEING USED TO AUGMENT CLOUD COVER ABOVE
       12000 FEET.
       "FAIR" INDICATES FEW OR NO CLOUDS BELOW 12,000 FEET WITH NO
       SIGNIFICANT WEATHER AND/OR OBSTRUCTIONS TO VISIBILITY.

  * THESE STATIONS DO NOT REPORT WEATHER SUCH AS RAIN...SNOW OR FOG.

NEZ001>004-019>022-054>056-010100-
NEBRASKA PANHANDLE

CITY           SKY/WX    TMP DP  RH WIND       PRES   REMARKS
SCOTTSBLUFF    SUNNY     85  43  22 SE7       30.15S
6HR MIN TEMP:  80; 6HR MAX TEMP:  87;

ALLIANCE       PTSUNNY   85  41  21 NE13      30.14F
6HR MIN TEMP:  82; 6HR MAX TEMP:  88;

CHADRON        MOSUNNY   85  44  23 VRB6      30.11S
6HR MIN TEMP:  82; 6HR MAX TEMP:  88;

KIMBALL        SUNNY     78  46  31 CALM      30.19S
SIDNEY         SUNNY     82  39  21 N7        30.17S
6HR MIN TEMP:  81; 6HR MAX TEMP:  89;

$$

NEZ057>060-069>072-079>082-010100-
SOUTHWEST NEBRASKA

CITY           SKY/WX    TMP DP  RH WIND       PRES   REMARKS
NORTH PLATTE   SUNNY     85  49  28 NE12      30.05F
6HR MIN TEMP:  83; 6HR MAX TEMP:  89;

IMPERIAL       MOSUNNY   85  49  28 W5        30.09F
6HR MIN TEMP:  80; 6HR MAX TEMP:  86;

LEXINGTON      SUNNY     85  56  36 N7        30.03S
MCCOOK         MOSUNNY   88  51  28 W10       30.04F
6HR MIN TEMP:  84; 6HR MAX TEMP:  90;

OGALLALA       SUNNY     85  41  20 NE6       30.09F
$$

NEZ005>010-023>029-035>040-094-010100-
NORTH CENTRAL NEBRASKA

CITY           SKY/WX    TMP DP  RH WIND       PRES   REMARKS
VALENTINE      SUNNY     84  49  29 N12       30.07F
6HR MIN TEMP:  83; 6HR MAX TEMP:  88;

AINSWORTH      SUNNY     83  50  31 N9        30.07F
BROKEN BOW     SUNNY     84  55  36 N12G20    30.05R
6HR MIN TEMP:  83; 6HR MAX TEMP:  89;

O`NEILL        SUNNY     80  62  53 E12       30.05F
ORD            SUNNY     84  56  38 N12       30.01S
6HR MIN TEMP:  84; 6HR MAX TEMP:  90;

THEDFORD       SUNNY     85  51  30 N10       30.09S
$$

NEZ041-046>049-061>064-073>077-083>087-010100-
SOUTH CENTRAL NEBRASKA

CITY           SKY/WX    TMP DP  RH WIND       PRES   REMARKS
GRAND ISLAND   MOSUNNY   86  61  42 S8        30.00S
6HR MIN TEMP:  81; 6HR MAX TEMP:  91; 6HR PCP: TRACE;

AURORA         SUNNY     82  61  47 SW8       29.99F
HASTINGS       SUNNY     84  59  42 S7        30.00F
6HR MIN TEMP:  77; 6HR MAX TEMP:  89; 6HR PCP: TRACE;

HEBRON         MOSUNNY   83  54  36 SW7       30.00F
HOLDREGE       SUNNY     86  55  34 CALM      30.02S
KEARNEY *      SUNNY     88  52  29 N13       30.01S
YORK           MOSUNNY   81  63  54 SE7       29.99F
$$

NEZ011>018-030>034-042>045-010100-
NORTHEAST NEBRASKA

CITY           SKY/WX    TMP DP  RH WIND       PRES   REMARKS
NORFOLK        PTSUNNY   75  62  64 SE7       30.03S
6HR MIN TEMP:  75; 6HR MAX TEMP:  85;

ALBION         MOSUNNY   76  65  67 E10       30.01F
BLAIR          PTSUNNY   76  60  56 E7        30.03S
COLUMBUS *     PTSUNNY   59  59 100 E5        29.99F
FREMONT        PTSUNNY   80  59  48 E10       30.01F
TEKAMAH        MOSUNNY   79  60  52 E12       30.02F
6HR MIN TEMP:  79; 6HR MAX TEMP:  84;

WAYNE          MOSUNNY   78  64  63 E9        30.05R
$$

NEZ050>053-065>068-078-088>093-010100-
SOUTHEAST NEBRASKA

CITY           SKY/WX    TMP DP  RH WIND       PRES   REMARKS
LINCOLN        PTSUNNY   84  56  38 SE10      30.00F
6HR MIN TEMP:  81; 6HR MAX TEMP:  88;

OMAHA EPPLEY   PTSUNNY   81  58  45 SE9       30.01F
6HR MIN TEMP:  79; 6HR MAX TEMP:  86;

BEATRICE       CLOUDY    83  57  41 SE6       30.00F
FALLS CITY     PTSUNNY   79  57  46 SE6       30.02F
6HR MIN TEMP:  79; 6HR MAX TEMP:  87;

NEBRASKA CITY  PTSUNNY   79  58  47 SE7       30.02F
PLATTSMOUTH    PTSUNNY   80  55  42 SE5       30.03S
$$

NEZ044-045-051>053-067-010100-
OMAHA AREA

CITY           SKY/WX    TMP DP  RH WIND       PRES   REMARKS
OMAHA EPPLEY   PTSUNNY   81  58  45 SE9       30.01F
6HR MIN TEMP:  79; 6HR MAX TEMP:  86;

BLAIR          PTSUNNY   76  60  56 E7        30.03S
FREMONT        PTSUNNY   80  59  48 E10       30.01F
MILLARD        PTSUNNY   81  60  49 SE9       30.01S
OFFUTT AFB     MOSUNNY   79  63  57 E9        30.01F
PLATTSMOUTH    PTSUNNY   80  55  42 SE5       30.03S
WAHOO          FAIR      80  62  55 SE5       30.00F
$$


USA.gov is the U.S. government's official web portal to all federal, state and local government web resources and services.